This demonstration page uses our WeatherBlox Daily Observations layout. Learn more.

Left ArrowRight Arrow

30.21309, -93.2044

Hourly Observations for July 17, 2022

Temp ( °F °C ) Dew Point ( °F °C ) Humidity (%) Winds ( mph kmh ) Pressure ( in mb ) Visibility ( mi km ) Precip ( " mm )
12:15 am 00:15 Clear 84 28.7 74 23.6 74 74 WSW 6 9 29.97 1015 10 16 0.00 0.00
12:35 am 00:35 Clear 83 28.6 74 23.6 74 74 SW 6 9 29.98 1015 10 16 0.00 0.00
12:55 am 00:55 Clear 83 28.3 75 23.7 76 76 WSW 6 9 29.98 1015 10 16 0.00 0.00
1:15 am 01:15 Clear 83 28.1 75 23.7 77 77 SW 6 9 29.97 1015 10 16 0.00 0.00
1:35 am 01:35 Clear 80 26.7 74 23.4 82 82 Calm 29.97 1015 10 16 0.00 0.00
1:55 am 01:55 Clear 79 26.2 74 23.5 85 85 SW 3 6 29.97 1015 10 16 0.00 0.00
2:15 am 02:15 Clear 78 25.5 74 23.1 87 87 Calm 29.97 1015 10 16 0.00 0.00
2:35 am 02:35 Clear 76 24.6 74 23.1 91 91 S 3 6 29.97 1015 10 16 0.00 0.00
2:55 am 02:55 Clear 77 25 74 23.3 90 90 Calm 29.97 1015 10 16 0.00 0.00
3:15 am 03:15 Clear 76 24.6 74 23.3 93 93 Calm 29.97 1015 10 16 0.00 0.00
3:35 am 03:35 Clear 76 24.5 74 23.3 93 93 Calm 29.97 1015 10 16 0.00 0.00
3:55 am 03:55 Clear 77 24.8 74 23.3 91 91 Calm 29.97 1015 10 16 0.00 0.00
4:15 am 04:15 Clear 77 24.9 74 23.6 93 93 Calm 29.97 1015 10 16 0.00 0.00
4:35 am 04:35 Clear 78 25.3 74 23.6 90 90 Calm 29.97 1015 10 16 0.00 0.00
4:55 am 04:55 Clear 79 26.3 75 23.8 86 86 Calm 29.97 1015 10 16 0.00 0.00
5:15 am 05:15 Clear 77 25.1 74 23.4 90 90 NNE 3 6 29.98 1015 10 16 0.00 0.00
5:35 am 05:35 Clear 77 25 74 23.6 92 92 Calm 29.98 1015 10 16 0.00 0.00
6:00 am 06:00 Mostly Clear 75 24 73 23 94 94 Calm 29.98 1015 10 16 0.00 0.00
6:54 am 06:54 Mostly Sunny 77 25 73 23 89 89 Calm 29.99 1016 10 16 0.00 0.00
7:47 am 07:47 Mostly Sunny 81 27 75 24 84 84 Calm 30.00 1016 10 16 0.00 0.00
8:45 am 08:45 Hazy 84 29 75 24 74 74 WNW 7 11 30.01 1016 7 11 0.00 0.00
9:45 am 09:45 Hazy 88 31 75 24 66 66 W 8 13 29.99 1016 7 11 0.00 0.00
10:45 am 10:45 Hazy 88 31 72 22 59 59 W 6 9 29.99 1016 7 11 0.00 0.00
11:50 am 11:50 Mostly Sunny 90 32 70 21 52 52 W 6 9 30.00 1016 10 16 0.00 0.00
12:56 pm 12:56 Mostly Sunny 93 34 72 22 49 49 Calm 29.98 1015 10 16 0.00 0.00
1:53 pm 13:53 Mostly Sunny 91 33 72 22 52 52 Calm 29.97 1015 10 16 0.00 0.00
2:46 pm 14:46 Mostly Cloudy 93 34 73 23 53 53 SSW 8 13 29.96 1015 10 16 0.00 0.00
3:46 pm 15:46 Partly Cloudy 91 33 72 22 52 52 SSW 7 11 29.94 1014 10 16 0.00 0.00
4:50 pm 16:50 Partly Cloudy 91 33 73 23 56 56 SSE 10 17 29.94 1014 10 16 0.00 0.00
5:49 pm 17:49 Partly Cloudy 91 33 73 23 56 56 S 9 15 29.93 1014 10 16 0.00 0.00
6:55 pm 18:55 Mostly Sunny 90 32 73 23 59 59 SSW 13 20 29.93 1014 10 16 0.00 0.00
7:54 pm 19:54 Mostly Sunny 88 31 73 23 62 62 SSW 10 17 29.93 1014 10 16 0.00 0.00
8:47 pm 20:47 Mostly Clear 84 29 75 24 74 74 S 9 15 29.94 1014 10 16 0.00 0.00
9:46 pm 21:46 Mostly Clear 84 29 75 24 74 74 SSW 8 13 29.94 1014 10 16 0.00 0.00
10:15 pm 22:15 Clear 83 28.5 74 23.6 75 75 SSW 7 11 29.95 1014 10 16 0.00 0.00
10:35 pm 22:35 Clear 83 28.5 74 23.6 75 75 SW 8 13 29.95 1014 10 16 0.00 0.00
10:55 pm 22:55 Clear 83 28.3 74 23.5 75 75 SSW 7 11 29.96 1015 10 16 0.00 0.00
11:15 pm 23:15 Clear 82 27.9 74 23.3 76 76 SSW 6 9 29.95 1014 10 16 0.00 0.00
11:35 pm 23:35 Clear 82 27.5 74 23.3 78 78 S 6 9 29.96 1015 10 16 0.00 0.00
11:55 pm 23:55 Clear 82 27.9 74 23.4 77 77 SW 6 9 29.96 1015 10 16 0.00 0.00

Powered by AerisWeather